Tracking 17142 objects as of 28-May-2015
HD Live streaming from Space Station

DELTA 1 R/B

Track DELTA 1 R/B now!
10-day predictions
DELTA 1 R/B is classified as:


NORAD ID: 2661
Int'l Code: 1967-006B
Perigee: 1,347.0 km
Apogee: 1,448.2 km
Inclination: 102.0 °
Period: 113.6 minutes
Semi major axis: 7768 km
RCS: 0.6811 m2 (medium)
Launch date: January 26, 1967
Source: United States (US)

Note: This is a ROCKET BODY
Your satellite tracking list
Your tracking list is empty





NASA's NSSDC Master Catalog

Two Line Element Set (TLE):
1 02661U 67006B   15147.62463806 -.00000051  00000-0 -17143-4 0  9995
2 02661 101.9973 020.4263 0065073 052.5817 003.6985 12.67911389236743

Source of the keplerian elements: AFSPC

N2YO: 354